Tracking 19489 objects as of 22-Jan-2019
HD Live streaming from Space Station
objects crossing your sky now

SSETI-EXPRESS

Track SSETI-EXPRESS now!
10-day predictions
SSETI-EXPRESS is classified as:


NORAD ID: 28894
Int'l Code: 2005-043E
Perigee: 682.4 km
Apogee: 708.2 km
Inclination: 98.0 °
Period: 98.5 minutes
Semi major axis: 7066 km
RCS: 0.4261 m2 (medium)
Launch date: October 27, 2005
Source: European Space Agency (ESA)
Launch site: PLESETSK MISSILE AND SPACE COMPLEX (PKMTR)

Uplink (MHz):
Downlink (MHz): 437.250
Beacon (MHz): 437.250
Mode: 9600bps FSK
Call sign: SSETI1
Status: Inactive

aabbcc
Your satellite tracking list
Your tracking list is empty




NASA's NSSDC Master Catalog

Two Line Element Set (TLE):
1 28894U 05043E   19021.42352680 +.00000012 +00000-0 +11566-4 0  9992
2 28894 097.9584 163.8086 0018283 119.6767 240.6258 14.61559083705052
Source of the keplerian elements: AFSPC